BBC3537 VGHS-OEJN

Flight info

Callsign BBC3537
Flight time N/A
Altitude 34000
Route IKOGU1C IKOGU A462 CEA A791 BPL L639 AGRIX/N0498F360 L639 RASKI N881 KIPOL L444 TOLDA M628 PEKEM DCT MEDPO DCT ITRUX/N0490F380 Y511 ASMIS T218 IMGUT M309 VEMEM VEMEM2L/34L
Aircraft B77W/H-SDE1E2E3FGHIJ2J3J4J5M1RWXY/LB1D1

Departure

Time N/A
Airport Hazrat Shahjalal International Airport (VGHS)

Arrival

Time 2026-04-29 17:18
Airport King Abdulaziz International Airport (OEJN)
Time Latitude Longitude Altitude Speed Heading
2026-04-29 16:55 22.02235 39.63895 24976 ft 424 kts 242°
2026-04-29 16:55 22.00724 39.61179 24309 ft 422 kts 242°
2026-04-29 16:56 21.99215 39.58467 23672 ft 420 kts 242°
2026-04-29 16:56 21.96565 39.53705 22520 ft 417 kts 242°
2026-04-29 16:56 21.95078 39.51040 22168 ft 408 kts 242°
2026-04-29 16:57 21.93668 39.48447 21992 ft 394 kts 245°
2026-04-29 16:57 21.92462 39.45857 21811 ft 381 kts 248°
2026-04-29 16:57 21.91363 39.43304 21639 ft 370 kts 248°
2026-04-29 16:57 21.90307 39.40828 21469 ft 360 kts 248°
2026-04-29 16:58 21.89263 39.38408 21052 ft 361 kts 248°
2026-04-29 16:58 21.88180 39.35928 20533 ft 372 kts 248°
2026-04-29 16:58 21.87036 39.33335 19881 ft 385 kts 247°
2026-04-29 16:58 21.85910 39.30807 19499 ft 389 kts 247°
2026-04-29 16:59 21.84731 39.28169 19027 ft 396 kts 247°
2026-04-29 16:59 21.83520 39.25461 18449 ft 397 kts 247°
2026-04-29 16:59 21.82340 39.22827 17871 ft 393 kts 246°
2026-04-29 16:59 21.80921 39.20329 17267 ft 392 kts 234°
2026-04-29 17:00 21.79107 39.18137 16693 ft 389 kts 230°
2026-04-29 17:00 21.77281 39.16011 16116 ft 386 kts 230°
2026-04-29 17:00 21.75486 39.13879 15532 ft 382 kts 230°
2026-04-29 17:00 21.73736 39.11749 14998 ft 379 kts 230°
2026-04-29 17:01 21.72009 39.09628 14438 ft 375 kts 230°
2026-04-29 17:01 21.70299 39.07522 13886 ft 372 kts 230°
2026-04-29 17:01 21.68434 39.05681 13398 ft 363 kts 214°
2026-04-29 17:01 21.66114 39.04641 12904 ft 364 kts 195°
2026-04-29 17:02 21.63597 39.04354 12395 ft 364 kts 182°
2026-04-29 17:02 21.61094 39.04741 11861 ft 366 kts 165°
2026-04-29 17:02 21.58751 39.05699 11349 ft 365 kts 161°
2026-04-29 17:02 21.56398 39.06689 11031 ft 357 kts 162°
2026-04-29 17:03 21.54111 39.07609 10870 ft 345 kts 162°
2026-04-29 17:03 21.51892 39.08484 10709 ft 334 kts 162°
2026-04-29 17:03 21.49741 39.09332 10558 ft 324 kts 162°
2026-04-29 17:03 21.47658 39.10154 10431 ft 314 kts 162°
2026-04-29 17:04 21.45644 39.10951 10282 ft 299 kts 162°
2026-04-29 17:04 21.43780 39.11694 10143 ft 272 kts 162°
2026-04-29 17:04 21.42028 39.12386 10078 ft 269 kts 163°
2026-04-29 17:04 21.40222 39.13094 9909 ft 285 kts 162°
2026-04-29 17:05 21.38349 39.13830 9563 ft 282 kts 162°
2026-04-29 17:05 21.36564 39.14534 9281 ft 265 kts 162°
2026-04-29 17:05 21.34852 39.15206 8708 ft 261 kts 162°
2026-04-29 17:05 21.33135 39.15875 7914 ft 265 kts 162°
2026-04-29 17:06 21.31396 39.16549 7135 ft 266 kts 162°
2026-04-29 17:06 21.29651 39.17223 6358 ft 267 kts 162°
2026-04-29 17:06 21.27898 39.17897 5571 ft 269 kts 162°
2026-04-29 17:06 21.26137 39.18568 4878 ft 267 kts 162°
2026-04-29 17:07 21.24426 39.19214 4460 ft 253 kts 162°
2026-04-29 17:07 21.22965 39.20074 4108 ft 240 kts 131°
2026-04-29 17:07 21.22349 39.21645 3944 ft 225 kts 87°
2026-04-29 17:07 21.22854 39.23101 3789 ft 203 kts 43°
2026-04-29 17:08 21.24040 39.23795 3445 ft 193 kts 14°
2026-04-29 17:08 21.25351 39.24237 3351 ft 199 kts 15°
2026-04-29 17:08 21.26662 39.24690 3279 ft 197 kts 14°
2026-04-29 17:08 21.27963 39.25118 3243 ft 196 kts 14°
2026-04-29 17:09 21.29256 39.25540 3261 ft 194 kts 13°
2026-04-29 17:09 21.30552 39.25957 3273 ft 194 kts 14°
2026-04-29 17:09 21.31821 39.26371 3274 ft 196 kts 13°
2026-04-29 17:09 21.33134 39.26779 3269 ft 194 kts
2026-04-29 17:10 21.34430 39.26664 3276 ft 184 kts 340°
2026-04-29 17:10 21.35674 39.26252 3275 ft 190 kts 340°
2026-04-29 17:10 21.36941 39.25811 3275 ft 192 kts 339°
2026-04-29 17:10 21.38191 39.25346 3264 ft 189 kts 338°
2026-04-29 17:11 21.39430 39.24874 3255 ft 188 kts 338°
2026-04-29 17:11 21.40655 39.24395 3255 ft 187 kts 338°
2026-04-29 17:11 21.41859 39.23920 3251 ft 187 kts 337°
2026-04-29 17:11 21.43077 39.23439 3251 ft 187 kts 338°
2026-04-29 17:12 21.44299 39.22958 3250 ft 188 kts 337°
2026-04-29 17:12 21.45511 39.22481 3252 ft 187 kts 337°
2026-04-29 17:12 21.46734 39.21997 3252 ft 187 kts 337°
2026-04-29 17:12 21.47541 39.21678 3252 ft 187 kts 337°
2026-04-29 17:13 21.49178 39.21031 3249 ft 188 kts 337°
2026-04-29 17:13 21.50406 39.20544 3246 ft 189 kts 337°
2026-04-29 17:13 21.51642 39.20055 3210 ft 191 kts 337°
2026-04-29 17:13 21.52901 39.19559 2933 ft 193 kts 338°
2026-04-29 17:14 21.54149 39.19067 2688 ft 189 kts 338°
2026-04-29 17:14 21.55369 39.18585 2431 ft 182 kts 338°
2026-04-29 17:14 21.56497 39.18138 2232 ft 164 kts 338°
2026-04-29 17:14 21.57515 39.17735 1991 ft 151 kts 339°
2026-04-29 17:15 21.58462 39.17361 1809 ft 141 kts 339°
2026-04-29 17:15 21.59378 39.16997 1652 ft 142 kts 339°
2026-04-29 17:15 21.60315 39.16626 1448 ft 143 kts 340°
2026-04-29 17:15 21.61244 39.16259 1263 ft 142 kts 340°
2026-04-29 17:16 21.62165 39.15895 1062 ft 140 kts 340°
2026-04-29 17:16 21.63082 39.15531 878 ft 141 kts 340°
2026-04-29 17:16 21.64006 39.15169 699 ft 141 kts 341°
2026-04-29 17:16 21.64926 39.14801 510 ft 141 kts 340°
2026-04-29 17:17 21.65843 39.14438 320 ft 139 kts 341°
2026-04-29 17:17 21.66743 39.14086 124 ft 137 kts 341°
2026-04-29 17:17 21.67628 39.13746 40 ft 128 kts 342°
2026-04-29 17:17 21.68321 39.13462 31 ft 75 kts 339°
2026-04-29 17:18 21.68566 39.13413 29 ft 24 kts
2026-04-29 17:18 21.68652 39.13429 29 ft 4 kts 10°
2026-04-29 17:18 21.68655 39.13429 29 ft 1 kts 10°
2026-04-29 17:18 21.68659 39.13430 29 ft 1 kts
2026-04-29 17:19 21.68674 39.13440 29 ft 7 kts 43°
2026-04-29 17:19 21.68637 39.13532 27 ft 24 kts 137°
2026-04-29 17:19 21.68486 39.13611 26 ft 25 kts 160°
2026-04-29 17:19 21.68325 39.13675 27 ft 25 kts 160°
2026-04-29 17:20 21.68231 39.13776 29 ft 20 kts 79°
2026-04-29 17:20 21.68275 39.13915 27 ft 20 kts 69°
2026-04-29 17:20 21.68324 39.14061 27 ft 25 kts 70°
2026-04-29 17:20 21.68397 39.14275 25 ft 27 kts 68°
2026-04-29 17:21 21.68468 39.14466 26 ft 27 kts 68°
2026-04-29 17:21 21.68537 39.14658 27 ft 27 kts 70°
2026-04-29 17:21 21.68601 39.14851 28 ft 27 kts 70°
2026-04-29 17:21 21.68664 39.15045 29 ft 27 kts 70°
2026-04-29 17:22 21.68757 39.15135 37 ft 18 kts 349°
2026-04-29 17:22 21.68875 39.15096 39 ft 18 kts 340°
2026-04-29 17:22 21.68991 39.15050 37 ft 18 kts 340°
2026-04-29 17:22 21.69130 39.14996 37 ft 24 kts 340°
2026-04-29 17:23 21.69286 39.14934 36 ft 24 kts 339°
2026-04-29 17:23 21.69459 39.14863 35 ft 29 kts 339°
2026-04-29 17:23 21.69645 39.14789 33 ft 29 kts 340°
2026-04-29 17:23 21.69832 39.14715 31 ft 29 kts 340°
2026-04-29 17:24 21.70018 39.14643 28 ft 29 kts 340°
2026-04-29 17:24 21.70204 39.14570 26 ft 28 kts 339°
2026-04-29 17:24 21.70390 39.14495 25 ft 25 kts 339°
2026-04-29 17:24 21.70448 39.14408 24 ft 15 kts 252°
2026-04-29 17:25 21.70393 39.14321 26 ft 15 kts 203°
2026-04-29 17:25 21.70288 39.14346 26 ft 20 kts 161°
2026-04-29 17:25 21.70131 39.14407 27 ft 25 kts 159°
2026-04-29 17:25 21.69965 39.14456 28 ft 25 kts 159°
2026-04-29 17:26 21.69846 39.14502 27 ft 7 kts 160°
2026-04-29 17:26 21.69803 39.14485 26 ft 8 kts 233°
2026-04-29 17:26 21.69788 39.14452 25 ft 0 kts 248°
2026-04-29 17:26 21.69787 39.14447 25 ft 0 kts 248°